Location: Baia Mare
(47.6567°N, 23.5850°E)
Time: 11:46:19
(UTC+03:00)

ISS - Pass Details

Date: 23 September 2019
Orbit: 418 x 420 km, 51.6° (Epoch: 10 August)

Event Time Altitude Azimuth Distance (km) Brightness Sun altitude
Rises 21:27:21 0° 266° (W) 2,422 1.1 -21.3°
Reaches altitude 10° 21:29:31 10° 273° (W) 1,556 0.1 -21.6°
Maximum altitude 21:32:55 48° 349° (N) 585 -2.9 -22.1°
Enters shadow 21:33:03 48° 357° (N) 588 -2.9 -22.1°
